Location: Vienna
(48.2082°N, 16.3738°E)
Time: 02:29:46
(UTC+01:00)

ISS - Pass Details

Date: 24 November 2019
Orbit: 411 x 421 km, 51.6° (Epoch: 12 December)

Event Time Altitude Azimuth Distance (km) Brightness Sun altitude
Rises 18:25:23 0° 239° (WSW) 2,349 1.2 -22.4°
Reaches altitude 10° 18:27:28 10° 237° (WSW) 1,491 -0.1 -22.8°
Enters shadow 18:29:47 41° 225° (SW) 621 -2.6 -23.2°
